Starlink 3172

operational
NORAD ID: 51139 Int'l Des: 2022-005 Owner: SPXS Country: US Constellation: starlink
LEOCIRCULAR

About Starlink 3172

Description loading...

Live Position

Loading 3D Globe...

Upcoming Passes

Altitude History

Altitude vs Time

uPlot chart will show altitude changes over time

Two-Line Element Set

1 51139U 22005AM 26062.01987979 -.00000001 00000-0 18011-4 0 9991
2 51139 53.2176 329.0755 0001487 94.6180 265.4982 15.08837625227736
Epoch: Mar 3, 2026 • Age: 25 hours

Current Status

Altitude 541.4 km
Velocity 7.60 km/s
Sub-Earth Point 33.25°N, 175.73°W
Launch Date Jan 19, 2022
Age 4.1 years
Type internet

Technical Details

Classification Payload
Mass 297.00 kg
Dry Mass 275.00 kg
Total Mass 297.00 kg
Length 0.20 m
Diameter 2.80 m
Span 9.00 m
Shape Box + pan
Manufacturer SPXS
Bus Type Starlink
Phase Status In Orbit
Owner/State SPXS/US

Large Constellations

Loading constellations...